Theta_e
296 296 296 296 296 296 296 296 295 295 294 294 294 294 294 294 294 294 294 294 293 293 293 292 292 292 292 291 291 291 290 290 290 289 289 289 289 289 289 289 290 290 291 291 291 291 291 291 290 290 290 290 290 289 289 289 289 289 289 289 289 288 288 287 287 287 288 288 288 288 288 288 288 288 288 289 288 288 287 286 285 284 283 283 283
297 296 296 296 296 295 295 295 296 295 295 295 295 294 294 294 293 294 293 293 293 293 293 293 293 293 292 292 292 291 291 291 290 290 290 290 289 289 289 289 290 290 291 291 291 291 291 291 290 290 290 290 289 289 289 289 289 289 289 289 288 288 288 287 287 287 288 288 288 288 288 288 288 288 288 288 288 287 286 285 284 283 283 283 282
298 297 297 297 296 296 295 295 295 295 295 296 295 295 295 294 294 293 293 293 293 293 293 293 293 293 293 293 292 292 291 291 291 290 290 290 290 290 289 290 290 290 290 291 291 291 291 291 290 290 290 290 290 289 289 289 289 289 289 289 288 288 288 288 287 287 287 287 288 287 287 287 287 287 288 288 287 286 285 284 283 283 282 282 282
298 298 298 297 297 297 296 296 296 295 295 295 295 296 295 295 295 294 294 293 293 293 293 292 292 292 292 292 292 292 292 291 291 290 290 290 290 290 290 290 290 290 290 290 290 290 291 291 291 290 290 290 290 290 289 289 289 289 289 288 288 288 288 287 287 287 287 287 287 287 287 286 287 287 287 287 286 285 284 283 282 282 282 282 281
298 298 298 298 297 297 297 297 296 296 296 296 295 295 295 295 295 295 295 294 294 293 293 292 292 292 292 292 292 292 292 291 291 291 291 290 290 290 290 290 290 290 290 290 290 291 290 290 291 290 290 290 290 290 289 289 289 288 288 288 288 287 287 287 287 287 287 287 287 286 286 286 286 287 287 286 285 284 283 282 282 281 281 281 281
298 298 298 298 298 298 297 297 297 296 296 296 296 295 295 295 295 295 295 295 295 294 294 293 293 293 293 292 292 292 292 292 291 291 291 290 290 290 290 290 290 290 290 290 290 290 290 291 291 290 290 290 290 290 289 289 289 288 288 288 287 287 287 287 287 287 287 286 286 286 286 286 286 286 286 285 284 283 282 281 281 281 281 281 280
298 298 298 298 298 298 298 298 297 297 297 296 296 296 296 296 295 295 295 295 295 295 294 294 294 293 293 293 293 292 292 292 292 291 291 291 290 290 290 290 290 290 290 290 290 290 290 290 290 290 290 290 289 289 289 289 288 288 288 287 287 287 287 287 287 286 286 286 286 286 286 285 285 285 285 283 282 281 280 280 280 280 280 280 280
298 298 298 298 298 298 298 298 297 297 297 297 297 296 296 296 296 295 295 295 295 295 294 294 294 294 293 293 293 293 293 292 292 292 292 291 291 291 291 290 290 290 290 290 290 289 289 289 289 289 289 289 289 289 288 288 288 288 288 287 287 287 286 286 286 286 287 286 286 285 285 285 285 284 283 281 280 280 279 279 279 279 279 279 279
299 298 298 298 298 298 298 298 297 297 297 297 297 297 296 296 295 295 295 295 295 295 294 294 294 294 294 293 293 293 293 293 293 293 292 292 292 291 291 291 290 290 290 290 290 290 290 289 289 289 289 289 289 288 288 288 288 288 287 287 287 287 286 286 286 286 286 286 285 285 284 284 284 283 281 280 279 279 278 278 278 278 278 278 278
299 299 298 298 298 298 298 298 298 298 297 297 297 297 297 297 296 295 295 295 295 295 295 295 294 294 294 294 294 293 293 294 293 293 293 292 292 292 291 291 291 291 291 291 291 291 290 290 290 290 289 289 289 289 289 289 288 288 287 287 287 287 286 286 286 286 286 285 285 284 283 284 283 281 279 279 279 278 278 278 278 277 277 277 278
299 299 299 299 298 298 298 298 298 298 297 297 297 297 297 297 297 297 296 296 295 295 295 295 295 295 294 294 294 294 294 294 294 294 293 293 293 292 292 292 291 291 291 291 291 291 291 291 291 290 290 290 290 289 289 289 288 288 288 287 287 286 286 286 286 286 286 285 284 283 283 283 281 279 279 278 278 278 278 277 277 277 277 277 278
298 299 299 299 299 298 298 298 298 298 297 297 297 297 297 297 297 297 297 297 296 296 295 295 295 295 294 294 294 294 295 295 294 294 294 293 293 292 292 292 292 292 292 291 292 292 292 291 291 291 291 290 290 290 289 289 288 288 288 287 287 286 286 286 286 286 285 283 283 283 282 281 279 278 278 278 278 277 277 277 277 277 278 278 278
298 299 299 299 299 299 298 298 298 298 298 298 297 297 297 297 297 297 297 297 297 297 297 296 296 296 295 295 295 294 294 294 294 294 294 294 293 293 292 292 292 292 292 292 292 292 292 291 291 291 291 290 290 290 289 289 288 288 288 287 287 287 286 286 286 285 284 283 283 282 280 279 278 278 278 278 277 277 277 277 278 278 278 278 278
299 299 299 299 299 299 299 298 298 298 298 298 297 297 297 297 297 297 297 297 297 297 297 297 297 297 296 296 296 295 295 295 294 294 294 294 294 293 292 292 292 292 292 292 292 292 292 291 291 291 291 290 290 289 289 289 288 288 288 287 287 287 286 286 286 285 284 284 282 280 279 278 278 278 278 277 277 277 278 278 278 278 278 277 277
299 299 299 299 299 299 299 298 298 298 298 298 298 297 297 297 297 297 297 297 297 297 297 297 297 297 297 297 297 296 297 296 295 295 294 294 293 293 293 293 292 293 293 292 292 292 291 291 291 291 290 290 290 289 289 288 288 288 287 287 287 287 286 286 285 285 284 283 281 279 279 278 278 277 277 277 278 278 278 278 278 277 276 276 275
299 299 299 300 299 299 299 299 298 298 298 298 298 298 298 298 298 297 297 297 297 297 297 297 297 297 297 296 296 297 297 296 296 296 295 294 294 293 293 293 293 293 293 292 292 292 291 291 290 290 290 290 290 289 289 288 288 287 287 287 286 286 286 285 285 284 283 281 279 279 278 278 277 277 278 278 278 278 277 276 276 275 275 274 274
300 300 299 300 300 299 299 299 298 298 298 298 298 298 298 298 298 298 297 297 297 297 297 297 297 297 297 296 296 296 296 296 296 296 296 295 294 294 294 294 293 293 293 293 292 291 291 291 290 290 291 290 290 289 288 287 287 287 286 286 286 285 285 285 284 283 281 279 278 278 278 278 278 277 278 277 277 276 276 275 275 274 274 273 274
300 300 300 300 300 299 299 299 299 299 298 298 298 298 298 298 298 298 297 297 297 297 297 297 297 297 297 296 296 296 296 296 296 295 295 295 295 295 294 294 294 294 294 293 292 292 292 291 291 291 290 290 289 288 287 287 286 286 286 285 285 285 285 283 282 280 279 278 278 278 278 278 277 277 277 277 276 275 275 275 274 273 273 273 273
300 300 300 300 299 299 299 299 299 299 299 299 298 298 298 298 298 298 297 297 297 297 297 297 297 297 296 296 296 296 296 296 296 295 295 295 294 294 294 294 294 294 294 293 293 292 292 292 291 291 290 289 288 287 287 286 286 285 285 284 284 284 283 281 279 278 278 278 278 278 278 277 277 277 276 276 275 275 275 274 274 273 273 273 273
300 300 300 299 299 299 299 299 299 299 299 299 299 298 298 298 298 298 297 297 297 297 297 297 297 297 296 296 296 296 296 296 295 295 295 295 294 294 294 294 294 294 293 293 293 292 292 291 291 290 289 288 287 287 286 285 285 285 284 284 283 282 280 278 278 278 278 278 277 277 277 277 276 276 276 275 275 275 275 274 274 273 273 273 273
300 300 300 299 299 299 299 299 299 299 299 298 298 298 298 298 298 298 297 297 297 297 297 297 297 297 296 296 296 296 295 295 295 295 295 294 294 294 294 294 293 293 293 292 292 292 291 291 290 289 288 287 287 286 285 285 285 284 284 283 281 279 278 278 277 277 277 277 277 276 276 276 276 275 275 275 275 275 274 274 274 273 272 272 272
300 300 299 299 299 299 299 299 299 299 299 298 298 298 298 298 298 298 297 297 297 297 297 297 296 296 296 296 296 296 295 295 295 295 294 294 294 294 293 293 293 292 292 292 292 291 290 290 289 288 287 286 286 285 285 285 284 284 282 281 279 278 277 277 277 277 277 277 276 276 276 276 275 275 275 275 274 274 274 274 273 273 272 271 271
300 300 300 300 299 299 299 299 299 298 298 298 298 298 298 298 298 298 297 297 297 297 297 297 296 296 296 296 296 296 295 295 295 294 294 294 294 293 293 293 293 292 292 292 291 290 289 288 288 287 286 285 285 285 285 284 283 282 281 279 278 278 277 277 277 277 276 276 276 276 275 275 275 274 274 274 274 274 273 273 272 272 271 271 271
300 300 300 300 299 299 299 299 299 299 298 298 298 298 298 298 298 298 297 297 297 297 297 297 296 296 296 296 296 296 295 295 294 294 294 294 293 293 293 292 292 292 291 291 290 289 288 287 286 286 285 285 284 284 284 283 282 280 279 278 278 277 277 277 277 276 276 276 275 275 275 274 274 274 274 274 273 273 273 272 272 271 271 271 271
300 300 300 300 300 299 299 299 299 299 298 298 298 298 298 298 297 297 297 297 297 297 297 297 296 296 296 296 296 296 295 295 294 294 294 294 293 293 292 292 292 292 291 290 289 288 287 286 285 285 285 284 284 284 283 281 280 279 278 278 277 277 277 277 276 276 275 275 275 275 274 274 274 274 273 273 272 272 272 272 271 271 271 271 271
300 300 300 300 300 299 299 299 299 299 298 298 298 298 298 297 297 297 297 297 297 297 297 297 296 296 296 296 296 295 295 295 294 294 294 293 293 293 292 292 292 291 290 289 288 287 286 286 285 285 285 284 283 282 281 280 279 278 278 278 277 277 277 276 276 275 275 275 274 274 274 274 273 273 272 272 272 272 271 271 271 271 271 270 271
300 300 300 300 300 300 299 299 299 299 298 298 298 298 298 297 297 297 297 297 297 296 296 296 296 296 296 296 295 295 295 294 294 294 293 293 293 292 292 291 290 289 288 287 287 286 286 285 285 285 284 283 282 281 280 279 278 278 278 278 277 277 276 276 275 275 275 274 274 274 273 273 273 272 272 272 271 271 271 271 271 271 271 270 270
300 300 300 300 300 300 299 299 299 299 299 298 298 298 298 297 297 297 297 296 296 296 296 296 296 296 296 295 295 295 294 294 294 294 293 292 292 291 290 290 289 288 287 286 285 285 285 284 284 284 283 282 281 280 279 278 278 278 277 277 277 276 276 275 275 275 274 274 273 273 273 273 272 272 272 271 272 271 271 270 270 270 270 269 270
300 300 300 300 300 300 300 299 299 299 299 299 298 298 298 297 297 297 297 296 296 296 296 296 296 296 295 295 295 294 294 294 294 293 292 292 291 291 290 289 288 287 285 285 284 284 284 284 283 283 282 281 280 279 278 278 277 277 277 276 276 276 275 275 275 274 274 273 273 273 272 272 272 272 271 271 272 271 271 270 270 270 269 269 269
300 300 300 300 300 300 299 299 299 299 299 299 298 298 298 297 297 297 297 297 296 296 296 296 296 295 295 295 295 294 294 294 293 293 292 291 291 290 289 288 287 286 284 284 283 283 283 283 282 282 281 280 279 278 277 277 277 277 276 276 275 275 275 274 274 273 273 273 272 272 272 272 271 271 271 271 271 271 270 270 269 269 269 269 269
300 300 300 300 300 299 299 299 299 299 299 299 298 298 298 297 297 297 297 297 297 296 296 296 296 295 295 295 295 294 294 293 293 292 292 291 290 289 288 287 286 285 284 283 283 283 283 282 282 281 280 279 278 277 277 277 276 276 275 275 275 274 274 274 273 273 273 272 272 272 271 271 271 271 271 271 271 271 270 270 269 269 269 269 269
300 300 300 300 299 299 299 299 299 299 299 299 298 298 298 297 297 297 297 297 296 296 296 296 296 295 295 295 294 294 293 293 292 292 291 290 289 288 287 286 285 284 283 283 283 283 282 281 281 280 279 278 277 277 276 276 276 275 275 275 274 274 274 273 273 272 272 272 271 271 271 270 270 270 270 270 270 270 270 270 269 269 269 269 269
300 300 300 299 299 299 299 299 299 299 299 298 298 298 298 297 297 297 297 296 296 296 296 296 296 295 295 294 294 293 293 292 292 291 290 289 288 287 286 285 284 283 283 283 283 282 281 280 279 279 278 277 277 276 276 275 275 275 274 274 274 274 273 273 272 272 272 271 271 271 270 270 270 270 270 269 269 269 269 269 269 269 268 268 269
300 299 299 299 299 299 299 299 299 299 298 298 298 298 297 297 297 297 296 296 296 296 296 296 295 295 294 294 294 293 292 292 291 290 289 288 287 286 284 284 283 283 282 282 282 281 280 279 278 278 277 277 276 276 275 275 274 274 274 273 273 273 273 272 272 271 271 271 270 270 270 270 270 269 269 269 269 269 269 268 268 268 268 268 268
299 299 299 300 300 300 300 299 299 299 299 298 298 298 297 297 297 297 297 296 296 296 295 295 294 294 294 293 293 292 291 291 290 289 287 286 285 284 283 283 283 282 282 281 280 279 279 278 277 277 276 276 276 275 275 274 274 274 273 273 273 272 272 272 271 271 271 270 270 270 270 270 269 269 268 268 268 268 268 268 268 268 268 268 268
300 300 300 300 301 301 301 300 300 300 300 300 299 299 299 298 298 297 296 296 296 295 295 294 294 293 293 292 292 291 290 289 288 287 285 284 284 283 283 282 282 282 281 280 279 278 278 277 277 276 276 275 275 275 274 274 273 273 273 272 272 272 271 271 271 271 270 270 270 270 269 269 269 268 268 268 268 268 268 268 267 267 267 267 267
300 300 301 301 301 301 301 301 301 301 301 301 301 300 300 300 299 297 296 296 295 295 294 294 293 293 292 291 291 290 289 288 287 285 284 283 283 283 282 282 281 281 280 279 278 277 277 276 276 275 275 275 274 274 274 273 273 273 272 272 272 271 271 271 271 270 270 270 269 269 269 269 268 268 267 267 268 267 267 267 267 267 267 267 267
300 301 302 301 301 301 301 301 301 301 301 301 301 301 301 300 299 298 297 296 295 294 294 293 293 292 291 290 289 288 287 286 285 284 284 283 282 282 281 281 280 280 279 278 277 276 276 276 275 275 275 274 274 273 273 273 272 272 272 271 271 271 271 270 270 270 269 269 269 269 269 269 268 268 267 267 267 267 267 267 267 267 267 267 267
300 301 302 301 301 301 301 301 301 302 302 301 301 300 300 300 299 298 296 295 295 294 293 293 292 291 290 289 288 287 286 285 284 284 283 282 281 281 280 280 279 278 277 277 276 276 276 275 275 275 274 274 273 273 273 272 272 272 271 271 271 270 270 270 270 269 269 269 269 269 268 268 268 267 267 267 267 267 266 266 266 266 267 267 267
300 301 302 302 302 302 301 301 301 302 301 301 300 300 299 299 298 297 296 295 294 293 293 292 291 290 289 288 286 285 284 284 283 282 282 281 281 280 280 279 278 277 277 276 276 275 275 275 275 274 274 273 273 273 272 272 272 271 271 270 270 270 270 269 269 269 268 268 268 268 268 268 268 267 267 267 266 266 266 266 266 266 266 266 267
300 301 302 302 302 301 301 301 301 301 301 300 299 299 299 298 297 296 295 294 293 293 292 291 290 288 287 286 285 284 283 282 282 281 281 280 280 279 278 278 277 276 276 275 275 275 275 274 274 273 273 273 273 272 272 272 271 270 270 270 270 270 270 269 269 268 268 267 267 267 268 268 267 267 267 267 266 266 266 266 266 266 266 267 267
300 301 301 301 301 301 301 301 301 300 300 299 299 298 298 297 296 295 294 293 292 292 291 289 288 287 286 285 283 282 282 281 281 280 280 279 279 278 277 277 276 276 275 275 274 274 274 274 273 273 273 272 272 272 271 271 270 270 270 270 269 269 269 269 268 267 267 267 267 267 267 267 267 267 267 267 266 266 266 266 266 266 266 267 267
300 300 300 300 300 300 300 300 300 299 299 299 298 298 297 296 295 294 293 292 291 290 289 288 287 286 284 283 282 282 281 281 280 280 279 278 278 277 276 276 276 275 275 274 274 274 273 273 273 273 272 272 272 271 271 271 270 270 270 269 269 269 269 268 268 267 266 266 267 267 267 267 267 267 267 267 266 266 266 266 266 266 266 267 267
299 299 299 299 299 299 299 299 299 299 298 298 297 297 296 295 294 293 292 291 290 289 288 286 285 284 283 282 281 281 280 280 279 279 278 277 277 276 276 275 275 275 274 274 274 273 273 272 272 272 272 272 271 271 270 270 269 269 269 269 269 268 268 268 267 267 266 266 266 266 267 267 267 267 267 267 266 266 266 266 266 266 266 266 266
298 298 298 298 299 299 299 298 298 298 297 297 297 296 294 293 292 291 290 290 289 287 286 284 283 282 281 280 280 279 279 279 278 278 277 276 276 275 275 275 275 274 274 274 273 273 272 272 272 272 272 271 271 270 270 270 269 269 269 268 268 268 268 267 267 266 266 266 266 266 267 267 267 267 267 266 266 266 266 266 266 266 266 266 266
298 297 297 297 297 297 297 297 297 296 296 296 295 294 292 291 291 290 289 287 286 285 284 282 281 281 280 279 279 279 278 278 278 277 276 276 275 275 275 274 274 274 274 273 272 272 272 272 272 271 271 271 271 270 270 269 269 269 268 268 268 268 267 267 267 266 266 266 266 266 266 267 267 267 266 266 266 266 266 266 265 265 265 265 265
297 297 296 296 296 296 296 296 296 296 295 294 293 292 290 290 289 288 287 285 284 283 282 281 280 279 279 279 278 278 278 278 277 276 276 275 275 275 274 274 274 273 273 272 272 272 271 271 271 271 271 271 270 270 269 269 269 268 268 268 268 267 267 267 267 266 266 266 266 266 266 266 267 267 266 266 266 266 265 265 265 265 265 265 264
297 296 296 295 295 295 295 295 295 294 293 292 291 290 289 288 287 286 285 283 282 281 280 280 279 279 279 278 278 278 277 277 276 276 275 275 274 274 274 273 273 273 272 272 271 271 271 271 271 271 270 270 270 269 269 269 268 268 268 268 267 267 267 267 267 266 266 266 266 266 266 266 266 266 266 266 266 265 265 265 265 266 266 265 263
297 296 295 295 295 294 294 293 293 292 291 290 289 288 287 286 285 284 283 282 281 280 279 279 279 279 278 278 277 277 276 276 275 275 275 274 274 274 273 273 272 272 272 271 271 271 271 271 270 270 270 269 269 269 268 268 268 268 268 268 267 267 267 267 266 266 266 266 265 265 266 266 266 266 266 265 265 264 265 265 265 266 266 264 263
296 295 294 294 293 292 292 291 290 289 288 287 286 286 285 284 283 282 281 280 279 279 279 278 278 278 277 277 276 276 275 275 274 274 274 274 274 273 273 272 272 272 271 271 271 271 271 271 270 270 270 269 269 269 268 268 268 268 268 268 267 267 267 266 266 266 266 265 265 265 265 265 265 265 265 265 265 265 265 265 265 265 265 264 262
294 293 293 292 291 290 290 289 288 287 286 285 284 283 282 281 280 279 279 279 278 278 278 278 277 277 276 276 275 275 274 274 274 274 273 273 273 272 272 272 271 271 271 271 271 271 271 270 270 270 270 269 269 269 269 268 268 268 268 268 268 267 267 266 266 266 265 265 265 265 265 265 265 265 265 265 265 265 265 265 265 265 264 262 261
Wind_Speed
11 11 12 13 13 13 13 13 13 13 13 11 10 9 8 7 8 8 7 7 7 7 7 7 7 7 7 7 7 8 8 9 9 9 9 9 9 9 9 8 8 7 6 6 5 5 5 6 6 6 7 8 9 10 12 13 15 16 18 20 21 22 23 24 27 30 30 28 29 29 29 30 31 30 32 33 32 33 33 34 34 34 34 34 33
11 10 10 11 12 13 13 14 15 16 16 16 15 13 12 11 11 11 9 9 10 9 8 8 8 8 8 7 7 8 8 8 9 10 10 10 10 10 10 10 10 10 10 9 9 9 9 9 9 9 10 11 12 13 14 15 17 18 20 22 23 23 25 26 28 32 34 32 32 32 31 31 32 32 32 33 34 34 35 35 35 35 35 35 35
11 11 10 10 10 11 12 13 14 16 16 17 17 17 16 15 15 15 14 13 13 12 12 11 11 11 11 10 10 9 9 9 10 11 11 11 11 11 12 12 12 12 12 12 12 12 13 12 12 12 13 14 15 16 17 18 19 21 22 24 26 26 26 28 30 33 35 36 34 34 33 33 33 33 33 34 34 35 36 37 36 36 36 36 36
13 12 12 11 11 10 11 11 12 14 14 15 16 16 17 18 18 19 18 18 18 17 16 16 15 15 15 14 13 13 12 12 12 13 13 12 12 12 13 14 14 14 15 15 15 16 16 16 15 15 16 18 18 19 20 20 21 23 24 25 27 28 29 30 32 33 35 37 37 35 35 34 34 34 34 35 36 36 37 38 38 37 37 37 37
14 14 13 13 12 12 11 11 11 12 12 13 14 15 16 17 18 20 20 21 21 20 20 20 19 20 19 18 17 17 16 16 16 16 16 15 15 15 15 16 16 16 17 17 17 18 19 20 19 19 20 21 21 21 22 23 24 25 27 28 29 30 31 32 33 33 35 37 38 37 36 36 36 35 34 36 38 38 39 39 39 39 39 39 38
15 15 15 15 14 14 13 13 13 13 13 13 13 14 15 16 18 19 20 21 22 22 23 23 23 23 23 22 22 21 20 20 20 20 19 19 19 19 19 18 18 18 18 19 19 20 21 22 22 22 24 25 25 25 25 26 27 28 29 30 31 32 33 33 33 34 35 37 38 38 37 37 37 37 36 36 38 40 40 40 40 39 40 40 40
17 16 16 16 16 15 15 14 15 15 15 15 14 15 15 15 16 17 19 21 22 22 23 24 24 25 25 25 25 25 24 24 25 24 24 23 23 23 23 22 22 22 21 21 22 22 23 24 24 25 26 27 28 28 28 29 30 31 32 32 33 34 34 35 34 35 36 37 37 38 38 37 38 38 38 37 38 39 39 41 42 41 40 40 41
18 18 17 17 17 16 16 16 17 17 17 17 17 17 16 16 16 16 18 20 21 21 22 23 24 25 25 26 26 26 27 27 28 28 27 27 27 26 26 26 26 26 25 25 25 26 26 27 27 27 28 29 30 30 31 31 32 33 33 33 33 34 35 35 35 35 36 37 37 37 38 38 38 39 39 38 38 38 38 39 42 42 41 41 41
19 19 19 18 17 16 17 18 18 19 19 19 19 19 19 18 18 18 19 20 20 20 21 21 22 24 24 25 25 26 27 28 28 28 28 28 29 29 29 29 29 29 29 29 29 30 30 30 30 30 30 31 32 32 33 33 33 33 33 33 33 34 35 34 35 35 35 36 37 37 38 39 39 39 39 38 38 39 38 38 41 41 41 41 40
21 20 20 19 17 17 18 19 20 20 21 21 21 21 21 21 21 21 21 21 21 21 21 21 22 23 23 23 24 25 26 26 26 26 27 28 29 30 30 30 31 31 32 32 33 33 33 33 33 33 33 33 34 34 34 33 32 33 32 33 33 33 33 34 34 34 35 36 36 37 38 39 39 38 38 38 37 38 38 38 39 39 39 39 38
24 23 21 20 19 18 18 19 20 21 22 23 23 22 22 23 23 24 24 24 24 23 23 23 23 23 23 23 24 24 24 24 24 24 25 26 27 29 30 30 31 31 32 33 34 34 34 34 34 34 34 35 34 34 34 33 33 32 32 32 32 31 32 32 33 33 34 35 36 36 37 39 39 37 36 37 37 36 37 36 36 37 37 35 33
27 25 23 22 20 20 19 20 21 22 23 24 24 24 24 25 25 26 26 26 26 26 26 26 26 26 26 26 26 25 25 24 23 23 24 24 26 28 29 30 30 31 32 33 33 33 33 34 34 34 34 34 34 34 34 33 32 32 31 30 30 30 30 31 32 33 33 34 36 36 37 37 37 35 35 36 36 35 35 35 34 35 34 30 28
28 28 25 23 22 21 20 21 22 22 23 24 25 25 26 27 28 27 27 26 27 28 28 28 29 28 29 29 29 29 28 27 25 25 25 25 26 28 30 30 31 31 32 32 33 33 34 34 34 34 34 33 33 33 32 32 31 31 30 29 29 28 29 30 31 32 33 34 36 37 35 34 35 35 34 34 33 33 33 33 31 30 30 29 31
28 29 27 25 24 22 22 22 23 23 23 24 25 27 28 29 29 29 28 28 28 29 29 29 29 29 30 31 31 32 32 31 29 28 28 28 28 29 31 32 32 33 33 33 34 34 33 34 34 33 32 31 31 31 31 30 30 30 29 28 28 28 29 30 31 32 33 34 36 37 35 34 34 35 33 30 29 29 29 28 27 28 32 36 40
28 29 28 27 25 24 23 23 24 24 24 24 26 28 29 30 30 30 30 29 30 30 29 30 30 30 31 31 32 33 32 31 31 31 30 30 30 31 32 34 34 35 35 34 34 34 33 32 32 32 31 30 29 29 30 30 30 29 28 27 28 28 29 30 31 33 34 34 36 36 35 34 34 33 31 27 25 26 26 27 30 34 40 44 45
30 30 29 28 26 25 24 24 25 25 25 26 28 30 30 31 31 31 31 31 31 31 31 31 31 30 31 31 32 33 32 31 31 31 30 30 31 32 33 34 35 36 35 35 33 32 31 30 30 30 29 29 29 29 29 29 28 27 27 27 28 30 30 31 32 33 34 35 35 34 34 33 32 28 24 22 22 25 29 32 36 39 43 45 45
32 31 30 28 27 26 25 26 26 26 27 28 30 30 31 31 31 31 31 32 32 32 32 31 31 31 31 31 32 32 31 30 30 30 29 29 30 31 33 33 34 34 34 33 31 30 29 29 29 29 28 28 28 27 27 27 26 26 27 28 29 31 31 32 33 34 34 34 33 33 33 31 28 24 22 23 26 30 34 38 40 39 41 43 45
33 32 31 29 27 27 27 27 28 28 29 30 30 30 30 30 30 30 30 32 32 32 32 32 32 32 32 32 32 32 31 30 29 29 29 29 30 31 32 32 33 33 32 31 29 29 29 28 28 28 27 26 26 25 25 25 25 26 27 29 31 32 32 33 34 34 33 33 33 32 31 29 27 27 28 30 32 33 36 39 38 37 39 41 44
33 32 31 30 29 28 28 29 30 30 30 31 31 30 29 29 29 29 30 31 32 32 32 33 33 33 32 32 32 32 32 30 30 30 29 29 30 30 31 32 32 32 31 30 29 29 28 28 27 27 26 25 24 24 23 24 25 26 28 30 32 33 33 33 34 33 32 31 30 29 29 29 31 33 33 33 33 33 34 34 34 35 38 41 42
33 32 31 30 30 30 29 30 31 31 31 31 31 31 30 30 30 30 30 31 31 32 32 33 34 33 33 32 32 32 32 31 30 30 29 30 30 31 31 32 32 31 29 29 29 29 28 28 27 25 24 23 23 23 23 23 25 27 28 31 33 34 33 32 31 30 28 28 28 29 31 33 34 34 33 32 32 32 32 32 33 34 36 39 40
33 33 32 31 31 31 31 31 32 32 32 31 31 32 31 30 30 30 31 31 31 32 33 33 34 34 33 33 32 31 31 31 30 30 30 30 30 31 32 32 31 30 29 29 29 29 28 27 25 24 24 23 22 22 22 23 25 27 29 32 33 32 29 27 28 29 30 31 32 34 34 34 33 32 32 32 32 31 32 32 33 34 34 36 38
33 33 33 33 32 32 32 32 33 33 32 32 32 33 32 31 32 31 31 32 32 33 33 33 34 35 34 33 33 32 31 31 30 29 29 30 30 31 32 31 30 29 30 30 30 28 27 25 24 23 23 22 22 22 22 24 26 28 31 32 32 30 28 28 31 33 34 34 34 34 34 33 33 33 33 33 32 32 32 32 32 33 33 33 34
34 34 34 34 33 33 33 33 33 33 33 33 33 33 32 32 33 32 32 33 33 34 34 34 34 35 34 33 33 32 31 31 30 30 29 30 30 30 30 30 29 29 30 30 28 26 25 24 23 23 22 22 22 22 23 25 27 30 32 31 31 31 31 32 33 33 33 33 33 33 34 33 34 34 33 33 33 33 33 33 33 33 33 34 34
34 35 35 35 34 33 33 34 34 34 34 33 33 34 33 33 33 33 33 33 34 34 34 34 34 35 35 34 33 32 31 31 30 30 30 30 30 30 29 29 29 29 29 29 26 25 24 23 22 22 22 22 23 24 25 27 29 31 31 31 31 31 32 32 31 31 32 33 33 34 33 33 33 33 33 34 34 34 33 33 33 33 33 35 36
35 36 36 36 35 34 34 34 34 34 34 33 34 34 33 33 33 34 34 34 34 35 34 34 34 34 35 34 33 32 30 30 30 30 30 31 30 30 29 29 29 29 29 27 26 24 24 23 22 22 22 23 24 25 27 28 29 30 30 29 30 30 30 30 30 31 32 32 33 34 34 33 33 33 34 34 34 34 34 34 34 34 34 36 37
36 36 36 37 35 35 35 34 34 34 34 34 34 33 33 33 33 34 35 35 35 35 35 34 34 34 34 34 32 31 30 30 30 30 31 31 31 30 30 30 30 29 28 27 26 25 24 23 23 22 23 24 25 27 29 30 30 29 28 28 29 29 29 29 29 30 32 33 34 34 34 34 34 34 34 34 34 33 33 34 35 36 35 36 39
35 35 36 36 35 35 36 35 34 34 34 34 34 33 33 33 33 34 35 35 35 35 35 34 34 34 34 33 31 30 30 30 30 31 31 31 31 31 31 31 30 28 28 27 26 25 24 23 23 23 23 25 27 29 30 30 30 29 28 27 28 27 28 28 29 31 32 33 34 35 35 35 35 35 34 34 34 33 33 34 36 37 36 36 39
35 35 35 35 35 35 35 34 34 34 34 34 34 33 33 33 33 33 33 33 34 34 34 34 34 33 33 32 32 31 31 31 31 30 30 29 29 30 30 30 29 29 28 27 25 24 24 24 23 23 24 26 27 29 30 30 29 28 27 26 26 26 27 28 29 30 31 33 34 35 35 35 35 35 35 35 35 34 34 34 36 37 36 37 39
33 34 33 33 33 33 33 33 33 33 33 33 33 33 33 32 33 33 32 32 33 34 34 34 34 33 33 33 32 33 33 32 29 28 28 28 29 29 29 29 29 28 27 26 25 25 24 24 23 24 25 26 28 28 28 28 28 27 26 25 24 25 26 27 29 30 30 32 34 34 35 35 35 35 35 35 35 35 34 35 36 37 37 37 39
32 33 32 31 32 31 31 31 31 32 33 33 33 33 33 32 33 34 33 32 33 33 34 35 34 33 33 33 33 33 33 31 29 28 29 29 29 29 29 29 29 28 27 27 26 25 24 24 25 25 26 26 27 28 27 27 26 25 24 23 23 24 26 27 29 30 31 32 33 34 34 35 35 34 34 35 36 36 35 36 36 36 37 38 40
32 32 30 30 30 30 30 31 30 31 32 32 33 34 33 33 33 34 34 33 33 33 33 34 34 34 34 33 33 32 32 31 29 28 28 28 28 29 29 29 29 28 27 27 26 25 25 25 26 26 26 27 27 27 26 26 25 25 24 24 23 24 26 28 29 30 31 32 33 33 33 33 33 33 34 35 36 36 36 36 37 37 38 39 41
32 31 29 29 29 29 29 29 29 29 30 30 32 33 34 34 34 34 34 34 34 33 33 33 33 33 33 32 32 31 31 30 29 28 28 28 28 28 28 29 29 27 26 26 26 25 25 26 26 26 27 27 27 26 25 25 25 24 24 25 25 25 26 27 29 30 31 32 33 33 33 32 32 32 33 34 35 37 37 37 37 37 38 40 41
30 29 28 28 28 28 27 27 27 28 28 29 30 31 32 34 34 34 34 34 34 33 33 32 32 32 32 31 30 30 29 29 28 27 27 27 27 27 27 27 27 26 25 25 25 25 25 26 26 26 26 26 26 25 25 24 24 24 25 26 27 27 27 28 29 30 30 31 32 32 32 31 31 32 33 33 34 36 37 37 37 38 39 41 42
29 28 28 28 27 26 25 25 25 26 26 27 28 29 31 32 33 34 35 35 35 35 33 33 33 32 31 30 29 29 28 28 27 27 26 25 25 25 25 25 25 25 25 24 25 25 25 25 26 25 25 25 25 24 24 23 24 25 26 27 28 28 28 28 29 30 31 31 31 31 30 31 31 31 33 34 34 36 37 37 38 38 39 42 44
28 28 28 26 25 24 23 22 23 24 24 25 26 27 29 31 32 34 35 36 36 35 34 34 33 32 30 30 29 28 28 27 27 25 24 24 23 23 24 24 25 24 24 24 24 24 24 25 25 24 24 24 24 23 23 23 24 25 26 28 28 28 29 29 30 30 31 31 31 30 30 30 30 30 32 34 35 37 38 38 38 39 40 42 45
28 28 27 25 23 23 22 22 22 23 23 24 25 26 28 29 31 33 34 35 35 35 34 34 33 32 31 30 28 28 28 27 26 24 23 23 23 24 24 24 23 23 24 24 24 24 23 24 23 23 23 23 22 22 23 23 24 26 27 28 29 29 29 30 30 31 31 31 30 30 30 30 31 30 32 34 35 36 38 38 39 40 41 42 45
28 28 26 24 23 23 23 23 23 24 24 25 26 27 29 30 31 32 33 34 34 34 33 33 33 31 31 30 28 28 27 26 24 24 23 23 23 23 23 22 22 23 23 23 23 23 23 23 23 22 22 22 21 22 23 24 25 26 27 27 28 29 29 30 30 30 31 31 30 30 30 31 31 31 32 35 36 36 37 38 39 41 42 43 45
28 27 26 25 23 24 25 26 26 26 27 28 29 30 31 32 32 32 32 33 33 33 33 33 32 31 30 29 28 27 26 25 24 24 24 23 22 22 22 22 22 22 22 21 22 22 22 22 22 22 21 21 21 22 24 24 25 26 27 27 28 29 29 30 30 29 30 30 30 30 31 32 32 32 33 35 36 37 38 39 40 42 44 44 46
28 27 27 26 26 26 27 27 28 29 30 31 31 31 32 32 32 32 31 31 32 32 32 32 31 30 29 28 27 26 25 24 24 24 23 22 21 21 21 21 21 21 21 21 22 22 22 21 21 21 21 21 22 23 24 25 26 26 27 28 29 29 29 29 29 29 29 29 30 30 31 32 32 33 34 35 36 37 39 40 41 42 44 46 48
28 27 27 28 28 29 29 29 31 32 32 32 31 31 31 32 32 31 31 31 31 31 31 30 29 28 26 26 25 24 23 23 22 21 21 21 21 21 21 21 21 21 21 21 22 22 21 20 20 20 21 21 23 24 25 25 26 26 27 28 29 30 29 29 29 29 29 29 30 30 31 32 33 34 35 36 36 38 39 41 42 43 44 46 48
28 28 29 29 30 31 32 32 33 32 32 31 31 31 31 31 30 30 30 30 30 30 29 28 26 25 24 23 22 21 21 20 20 20 20 21 21 21 21 21 21 21 21 21 22 21 20 20 19 20 20 22 23 24 25 25 26 27 27 28 29 30 30 29 29 29 29 29 30 31 32 33 34 35 36 37 37 39 40 41 43 44 45 46 47
30 30 31 31 32 33 33 33 33 32 31 32 32 31 31 30 30 29 29 28 28 28 27 26 24 23 22 20 20 20 20 20 19 20 20 20 21 21 20 20 21 21 22 22 22 21 20 20 20 20 21 22 23 24 25 25 26 27 28 28 29 30 30 30 29 29 29 30 31 32 33 34 35 37 38 38 38 39 41 42 43 44 45 46 46
31 32 32 32 33 33 33 32 32 32 32 32 31 31 31 31 30 29 27 26 26 26 25 24 22 21 20 19 19 19 19 19 19 19 19 19 20 20 20 20 21 21 22 22 21 21 21 20 20 21 22 23 24 25 25 26 27 27 28 29 30 30 30 30 30 30 31 32 33 33 34 36 37 38 39 39 39 41 42 43 44 45 45 46 46
30 31 31 32 32 32 32 32 32 32 32 31 31 31 31 30 29 27 25 24 24 24 22 21 20 18 18 18 17 17 17 18 18 19 19 19 19 19 20 20 21 21 21 21 21 21 21 21 21 22 22 23 24 25 26 26 27 28 29 30 31 31 31 31 31 32 33 34 34 35 36 38 39 40 40 40 40 42 43 44 45 45 45 46 46
29 30 30 30 31 31 32 32 32 31 31 31 31 31 29 28 26 24 23 23 22 21 20 19 17 16 15 15 16 16 17 17 18 18 18 18 19 19 20 21 21 21 21 21 21 21 22 22 23 23 23 23 24 25 26 26 27 28 29 30 32 32 32 32 33 34 35 35 36 37 37 39 40 41 41 41 41 43 44 44 45 45 45 45 45
27 28 28 29 30 31 31 31 31 31 31 30 30 28 26 25 23 22 21 20 19 18 16 15 14 14 14 15 16 16 17 17 18 18 18 18 19 19 20 20 20 21 20 21 21 22 22 23 24 24 25 25 25 25 26 27 27 28 29 30 32 33 33 33 35 36 36 36 37 37 38 39 40 41 42 42 42 43 44 44 45 45 45 45 45
26 26 28 29 29 30 30 30 30 31 30 29 27 25 23 22 21 19 18 17 16 14 13 13 13 14 15 15 16 17 17 17 18 18 18 19 19 19 20 20 20 20 20 20 21 22 23 24 25 26 26 27 27 27 27 27 27 28 29 30 31 33 33 34 35 36 36 37 37 37 38 39 40 40 41 42 43 44 44 44 45 44 43 43 43
27 27 28 29 29 30 31 30 30 29 27 26 24 22 20 19 18 16 15 14 13 13 13 14 14 15 16 16 17 17 17 17 18 18 19 19 19 20 20 20 20 20 20 20 21 22 23 24 25 26 27 28 28 28 28 28 28 29 29 30 31 32 33 34 35 36 36 36 37 37 37 38 38 39 40 41 42 43 44 44 44 43 42 42 43
28 28 29 29 29 30 29 28 27 26 24 22 21 19 17 16 15 13 12 12 12 13 14 14 15 15 16 16 16 17 17 17 18 18 18 19 19 20 20 20 20 20 20 20 21 23 24 25 26 27 28 29 29 29 29 29 29 29 30 30 31 31 32 32 33 34 34 35 36 36 36 37 37 38 40 41 42 43 43 43 43 43 42 43 43
29 28 28 28 28 27 27 26 24 23 21 19 17 16 14 12 11 11 11 12 13 13 14 14 14 15 15 16 16 16 17 17 17 18 18 19 19 20 20 20 20 21 21 22 23 24 25 26 27 28 29 30 30 30 31 31 30 30 30 30 31 31 31 31 32 32 32 33 34 35 35 36 36 38 39 41 41 42 42 42 42 42 42 43 44
28 27 26 26 25 24 23 22 20 19 17 15 13 11 10 9 10 11 11 11 12 13 13 13 14 15 15 15 16 16 17 17 17 18 18 19 19 19 20 20 20 21 22 23 24 25 25 26 28 28 29 30 31 31 31 31 31 31 31 31 31 31 31 31 31 31 31 31 32 33 34 35 36 37 39 40 40 41 41 41 41 41 42 43 43
Wind_Direction
325 315 303 297 293 288 284 280 278 278 278 278 281 286 293 304 309 310 318 322 321 325 327 327 327 326 327 327 326 323 320 320 319 317 319 319 318 316 314 313 311 307 304 304 304 306 310 312 313 318 322 325 326 324 322 322 323 324 324 323 323 322 321 319 315 316 321 324 324 325 327 326 328 332 330 328 329 330 330 330 328 327 327 326 325
321 321 315 311 307 300 291 285 282 279 277 275 273 273 275 280 285 287 290 294 294 296 298 300 301 300 303 305 305 307 308 307 305 304 305 306 304 304 302 301 299 296 293 292 290 290 293 295 298 302 305 309 312 311 311 313 314 315 316 315 315 316 315 315 314 313 315 319 320 321 323 323 324 328 328 326 326 327 327 327 326 325 325 324 323
310 309 309 309 309 306 300 296 292 286 284 281 277 274 271 270 272 274 276 278 280 281 283 283 284 283 284 286 288 290 292 292 291 291 292 292 292 292 291 290 288 285 284 282 280 281 283 287 289 290 292 297 300 302 303 305 306 307 309 309 309 310 311 310 310 310 311 314 316 318 319 320 322 325 326 323 323 324 325 324 323 323 323 323 321
311 304 300 298 297 298 300 299 295 292 291 288 284 280 276 272 270 269 270 270 271 273 275 275 276 276 276 277 278 280 280 281 281 281 282 284 283 282 281 281 281 280 279 276 273 272 274 278 282 283 284 287 291 294 296 297 299 300 301 303 304 305 306 306 307 308 308 310 312 315 317 318 320 323 324 321 321 323 323 322 321 321 322 322 320
313 306 300 295 290 287 288 289 289 291 290 287 285 282 277 273 270 268 268 266 266 267 268 269 270 270 271 272 272 272 273 274 274 275 277 278 278 277 276 276 278 278 279 277 274 272 272 274 278 280 281 283 287 290 292 293 295 296 297 299 301 302 303 304 304 305 306 307 310 312 314 316 318 321 322 321 321 322 321 320 320 320 321 321 320
308 307 302 296 290 285 282 280 280 281 282 282 282 278 275 273 270 269 268 266 265 264 263 264 264 265 266 267 267 267 268 269 269 270 271 272 272 273 273 273 274 275 276 276 276 275 275 276 277 278 279 282 284 288 290 292 293 294 296 298 299 300 301 301 303 304 305 306 308 310 313 314 316 319 320 320 320 320 319 318 318 319 320 319 318
301 303 301 297 292 287 282 277 275 275 275 276 276 275 274 274 273 272 270 267 265 265 264 264 264 264 265 265 265 265 265 265 265 265 266 268 269 270 271 272 273 273 273 273 274 274 274 276 277 277 279 281 284 287 290 292 293 294 295 296 297 298 298 299 301 302 304 305 306 308 311 313 315 317 318 319 319 318 318 317 316 318 319 317 316
296 298 297 295 293 288 283 277 273 273 273 272 272 272 272 272 272 271 268 266 267 266 266 266 265 264 264 264 264 264 264 264 264 264 265 266 267 268 269 270 271 272 272 272 272 273 274 275 276 277 278 281 284 286 288 290 291 292 293 294 295 295 295 297 299 301 302 303 305 307 309 310 313 315 317 318 317 316 317 316 315 316 317 315 315
294 293 292 293 294 289 282 277 274 273 272 271 271 271 269 268 268 267 267 267 268 268 267 266 265 264 263 263 264 263 264 265 265 266 267 267 267 268 268 269 270 270 271 271 271 271 272 274 274 276 278 280 283 285 286 288 289 290 291 291 291 291 293 294 297 299 301 302 303 305 307 309 312 314 315 316 315 315 315 314 313 314 316 316 317
296 293 291 290 292 288 281 276 274 272 271 271 271 270 269 268 266 265 266 266 267 268 268 266 265 265 265 265 265 265 265 267 268 268 269 269 269 269 269 269 269 270 270 270 270 270 271 272 274 275 277 279 281 282 284 285 286 287 287 287 288 289 290 292 294 297 299 300 301 304 305 307 311 312 312 312 313 312 313 313 312 313 317 318 318
298 296 293 291 289 285 281 277 273 271 270 270 269 269 269 268 266 266 265 266 267 267 268 267 267 268 268 267 266 266 266 268 269 269 269 269 269 269 269 269 269 269 269 270 270 271 271 272 274 275 276 277 279 280 281 283 283 284 284 285 286 287 288 290 293 295 297 297 299 301 303 306 308 309 309 309 310 310 310 311 312 315 320 319 315
295 296 294 292 288 284 281 277 273 270 269 269 268 268 267 266 266 266 267 268 268 267 267 268 268 268 268 267 267 268 269 271 270 269 268 268 268 268 267 267 267 267 268 269 270 271 272 273 273 274 275 276 277 279 280 281 281 282 283 284 285 285 286 288 291 293 294 295 297 299 301 303 304 305 307 308 309 309 309 312 315 318 319 313 307
290 292 294 292 289 285 281 277 273 271 269 269 268 266 265 265 266 267 268 268 268 267 268 269 269 269 268 268 269 269 271 271 270 268 268 267 267 267 266 266 266 267 267 269 270 271 273 273 274 275 276 277 278 279 279 280 281 281 282 283 283 283 284 286 288 290 291 293 296 298 300 302 303 304 307 307 307 308 311 315 317 315 308 299 295
286 288 290 291 289 286 282 278 275 273 270 268 267 265 265 265 266 267 267 267 268 269 270 269 269 269 269 269 270 270 271 271 270 269 269 268 267 267 267 267 268 268 270 270 272 273 274 276 277 279 280 280 280 280 280 280 280 280 282 283 283 283 283 285 286 287 289 292 295 297 300 301 302 303 304 306 309 312 314 313 308 299 292 291 292
283 284 287 289 289 286 282 279 276 274 271 268 266 265 265 266 267 267 267 268 268 269 269 269 269 269 269 270 270 271 272 272 271 270 269 269 268 267 267 268 269 271 272 273 274 276 278 279 280 281 281 281 281 281 281 280 280 281 282 282 282 282 283 285 286 288 291 293 295 297 298 299 300 301 304 308 309 306 300 293 290 290 292 295 297
282 283 285 287 287 285 283 280 276 274 272 269 266 266 267 268 269 270 269 269 269 268 268 269 270 270 270 270 270 271 274 273 272 271 271 270 269 268 268 269 270 272 274 276 277 279 279 279 279 280 281 281 281 281 280 280 280 281 282 282 282 283 285 287 288 290 293 295 295 296 295 296 297 298 300 300 295 291 289 289 293 297 299 301 303
283 283 284 286 286 285 283 280 277 274 271 270 269 269 271 272 272 272 271 270 269 269 269 270 270 270 270 270 271 272 275 275 273 272 271 270 269 268 269 270 272 273 275 277 278 278 278 278 278 279 280 281 281 280 279 279 280 280 282 282 283 284 286 288 290 291 293 293 292 291 291 293 295 293 291 292 293 294 295 297 300 303 303 303 304
284 284 285 286 286 284 281 277 275 273 272 271 272 272 273 274 274 273 271 270 269 269 269 269 269 270 270 271 272 273 275 275 274 273 272 271 269 269 270 271 272 274 275 277 277 277 277 278 278 279 280 280 279 278 277 278 279 280 282 283 284 286 289 291 292 292 292 291 291 292 295 297 296 295 296 298 300 300 298 298 301 302 302 302 302
286 287 287 286 284 281 279 276 274 273 273 273 274 275 275 275 274 272 270 270 270 269 269 269 269 270 271 271 272 273 274 275 274 274 273 272 271 271 271 271 272 274 276 277 277 277 277 278 278 277 278 277 277 276 276 277 279 281 282 284 286 288 292 294 295 295 296 296 296 297 297 295 294 296 299 300 299 298 296 296 299 300 299 300 301
288 288 286 285 282 280 277 275 274 274 274 275 275 276 276 275 273 272 271 271 270 270 269 269 269 270 270 271 271 272 273 274 274 274 273 272 272 272 272 272 274 276 277 276 277 277 277 277 277 276 276 275 275 276 277 279 281 282 284 286 288 292 295 297 297 297 296 294 291 289 288 289 292 295 297 297 296 295 296 296 297 298 298 299 302
289 287 285 283 280 279 277 275 275 275 275 276 276 275 275 275 275 274 273 272 271 270 269 269 270 270 270 271 271 272 273 273 273 272 272 272 272 272 273 274 276 277 277 276 275 276 276 276 276 275 275 275 275 276 278 279 281 284 286 288 291 295 297 295 292 290 289 287 287 287 288 291 294 296 296 297 297 297 297 298 298 298 299 301 302
289 286 284 282 280 278 277 275 275 275 275 276 276 276 276 276 276 276 275 274 273 272 271 270 271 271 271 271 272 273 274 274 273 272 272 272 272 272 273 275 276 275 275 275 274 274 274 274 274 274 274 274 275 276 278 280 282 284 287 289 293 294 292 289 289 289 289 290 291 292 294 296 298 298 298 298 299 299 300 301 301 301 301 301 300
289 286 283 281 279 278 277 276 275 275 276 276 276 277 277 277 277 277 276 276 275 274 273 273 272 273 273 273 273 274 274 274 274 274 273 273 273 273 274 274 274 273 273 272 272 272 272 272 272 272 272 272 273 274 278 281 283 286 289 292 293 292 291 291 292 292 292 292 293 295 297 299 299 299 300 301 302 304 305 305 305 304 302 301 299
287 284 282 281 280 278 278 277 276 276 276 277 276 277 277 277 277 278 277 277 277 276 275 275 274 274 274 274 274 275 275 275 275 275 275 275 274 273 273 272 272 271 270 270 271 271 271 270 269 269 268 269 272 275 279 283 286 288 292 293 292 292 293 294 293 292 292 293 295 296 298 299 299 301 304 306 307 308 309 307 306 304 303 302 301
284 283 281 280 280 279 278 277 277 278 278 278 278 278 279 279 278 279 278 277 277 276 276 276 276 276 276 276 276 276 276 276 276 276 275 275 274 273 272 271 271 271 270 270 271 270 268 266 265 265 267 270 275 279 283 286 289 291 293 292 292 292 293 292 292 292 294 295 296 297 299 300 302 304 306 308 308 308 309 306 304 304 303 303 302
281 281 280 279 279 279 278 278 278 279 279 279 279 279 280 279 279 279 279 278 278 278 278 279 278 278 277 277 278 279 278 277 276 275 275 275 275 275 274 273 272 271 270 269 268 266 265 264 264 265 269 275 280 284 288 290 292 292 292 291 292 292 293 293 293 294 295 296 298 299 301 303 305 307 308 308 307 308 307 306 305 306 307 306 305
279 278 278 279 279 278 279 279 280 280 280 280 281 281 281 281 280 280 280 280 280 281 280 280 280 279 278 279 279 278 277 275 274 274 274 275 276 276 275 273 272 271 269 267 266 265 264 263 264 268 275 281 286 289 291 292 292 292 292 292 293 293 293 292 293 295 297 299 300 300 303 305 306 308 308 307 307 308 308 308 308 309 310 310 308
278 278 278 279 278 278 279 281 281 282 282 282 283 283 283 283 282 281 281 281 281 281 280 280 279 279 279 279 278 276 274 274 274 276 276 276 276 274 273 273 272 271 269 267 265 263 262 263 267 273 279 283 287 289 290 291 291 291 292 292 291 291 291 291 294 296 298 299 299 300 303 305 306 308 308 307 307 309 310 310 310 311 312 312 310
277 278 278 278 278 278 280 281 282 283 284 285 285 286 286 285 284 282 281 281 280 280 279 279 279 279 279 278 277 276 276 276 277 277 275 273 272 271 270 270 269 268 267 265 263 261 263 266 271 276 281 284 287 288 289 289 290 290 291 291 291 291 292 294 296 297 297 297 298 300 303 305 306 307 308 307 308 310 311 311 311 312 312 312 311
278 279 279 278 279 279 281 282 283 283 284 285 286 286 286 286 285 285 283 282 281 280 280 280 280 279 278 277 277 277 277 278 277 274 272 271 269 268 266 265 264 263 261 261 260 261 264 270 275 280 285 287 288 289 289 289 291 292 292 293 293 294 296 297 297 298 298 298 300 302 304 305 306 307 308 308 309 310 311 311 311 312 312 312 311
280 280 281 280 280 281 282 282 283 283 284 286 287 287 288 287 287 287 286 285 284 282 281 282 281 280 280 279 278 277 277 277 276 273 271 270 267 265 263 261 260 258 257 258 260 263 269 275 281 285 288 288 289 290 291 292 293 295 294 295 295 296 297 298 298 298 299 300 302 304 305 306 307 307 308 308 309 310 311 311 311 312 312 312 311
281 283 284 282 281 282 282 283 284 284 285 286 287 288 289 289 288 288 288 287 286 284 283 282 282 282 281 280 279 278 278 277 276 274 271 268 264 261 259 257 256 255 255 257 261 267 273 279 283 286 287 288 290 292 293 294 295 295 295 296 297 298 298 298 298 299 300 302 303 304 305 306 307 307 308 308 309 310 310 310 312 312 312 312 311
282 284 284 283 282 283 284 285 286 286 286 287 288 288 289 289 289 290 289 287 286 284 283 283 281 280 280 280 279 279 278 276 275 273 270 266 263 259 256 254 253 252 253 257 264 271 276 280 283 285 287 289 291 292 293 293 294 294 295 297 299 300 300 299 299 300 301 302 303 303 304 306 306 307 308 309 309 309 310 311 313 313 312 312 312
282 282 282 282 283 285 286 286 286 286 287 288 288 288 289 289 289 289 288 286 286 285 284 282 281 279 279 279 278 278 277 276 275 273 269 265 261 256 252 250 249 250 254 261 267 272 276 279 282 284 286 288 290 291 292 293 294 295 296 298 299 300 301 301 301 302 302 302 302 302 304 305 306 307 308 309 309 310 310 312 313 313 313 313 313
280 279 279 281 283 285 285 284 284 285 287 288 288 288 289 289 288 287 287 286 286 285 284 282 282 281 280 279 277 276 275 274 273 271 267 262 257 252 248 247 249 254 260 265 270 273 276 279 282 284 286 288 289 291 292 293 294 295 297 298 299 300 301 301 302 302 302 302 303 304 304 305 307 308 309 309 310 311 311 313 313 313 313 313 313
277 277 278 279 280 281 282 282 283 286 288 289 290 290 291 290 288 287 286 285 284 283 283 282 282 282 280 278 275 274 272 271 270 268 263 257 253 250 248 249 253 259 264 269 273 276 279 282 284 285 287 289 290 291 292 293 295 296 297 298 299 300 301 302 303 303 303 303 304 305 305 306 308 309 309 309 310 311 312 314 314 313 313 313 313
276 276 278 278 279 280 282 283 285 288 291 293 294 295 294 293 291 288 286 285 284 283 282 281 280 279 278 275 273 271 269 268 266 263 258 254 251 251 251 253 257 263 269 273 277 280 282 285 287 288 290 291 291 291 293 295 296 296 297 298 299 300 301 303 303 304 304 305 305 306 306 307 309 310 310 310 311 312 314 314 313 313 314 313 313
276 277 278 279 280 280 282 284 287 290 293 295 296 296 295 294 292 289 287 286 284 283 282 281 279 277 276 273 270 268 266 264 262 259 257 255 252 251 254 258 264 269 274 277 280 283 285 287 289 290 290 291 291 292 294 295 296 297 297 298 298 299 301 302 303 304 305 305 306 307 307 308 310 311 311 311 313 314 315 314 314 313 314 313 313
278 279 280 280 280 280 281 284 287 290 293 294 295 295 294 292 291 290 288 287 285 283 282 281 279 277 275 271 268 265 263 262 261 260 259 256 253 254 260 266 271 275 279 281 283 285 286 288 289 289 290 291 292 294 295 296 297 298 298 298 299 300 302 303 304 305 306 306 307 307 308 309 311 312 312 313 315 315 315 314 314 313 313 313 313
279 279 278 278 279 280 280 282 285 289 292 293 293 292 291 291 291 291 289 287 286 284 283 282 280 277 274 271 268 266 264 262 261 259 256 255 257 263 268 273 277 280 282 283 284 285 286 287 287 288 290 292 294 295 296 297 298 298 298 299 300 302 303 305 306 307 308 308 308 308 309 310 312 312 313 315 316 316 315 314 314 313 312 312 313
278 276 275 276 277 277 277 280 284 288 290 290 290 290 291 291 291 290 289 288 287 286 284 281 278 275 273 269 266 263 260 257 254 251 251 256 263 270 274 278 281 283 284 285 285 286 287 287 287 288 290 292 294 296 297 298 298 298 299 300 301 302 304 306 307 308 308 307 308 309 310 311 312 313 314 316 317 316 315 313 313 312 311 312 314
276 275 275 275 275 275 276 280 284 287 287 288 289 290 291 290 288 287 287 287 287 285 283 279 277 274 271 265 259 255 252 249 247 249 254 262 269 274 278 282 284 285 286 286 287 287 287 287 289 291 292 294 296 297 298 299 300 300 300 301 301 302 304 305 306 307 306 306 307 308 309 310 311 312 314 316 317 316 314 313 312 312 312 314 316
277 276 276 276 276 277 278 281 284 285 286 287 289 290 289 287 285 285 286 287 286 285 282 278 275 272 267 260 253 248 246 246 249 255 263 269 273 278 281 284 285 285 286 286 286 286 287 288 290 293 295 298 299 300 301 301 301 301 301 302 302 303 304 305 305 305 304 304 306 308 309 309 310 310 312 315 316 315 314 313 312 312 314 316 318
279 278 278 278 278 278 280 282 284 285 286 287 288 288 287 285 284 284 286 286 285 283 279 275 271 265 259 253 247 244 246 251 257 265 270 275 279 282 284 284 285 286 286 286 286 287 288 291 293 295 298 300 300 301 302 302 301 301 301 301 301 302 303 303 303 303 303 304 305 307 307 307 308 309 311 313 314 314 313 313 313 314 316 318 319
282 280 278 278 279 279 281 283 284 285 285 286 287 287 285 283 283 284 285 284 281 278 274 270 263 255 247 244 244 247 253 260 266 271 276 279 282 284 284 284 285 285 285 286 287 289 292 295 296 297 299 300 301 302 302 301 301 300 300 300 300 301 301 302 301 301 302 303 304 305 306 306 306 308 309 311 312 312 312 313 314 315 317 319 319
285 282 280 279 280 281 282 284 284 285 286 286 286 284 283 281 281 281 280 278 276 272 266 259 250 244 242 246 252 258 264 269 274 278 281 283 284 284 284 284 284 283 284 286 288 290 293 296 297 299 301 302 301 301 301 300 299 299 298 298 299 299 299 300 299 299 301 303 303 304 304 304 305 306 307 309 310 311 312 314 315 316 318 318 317
289 285 283 282 283 284 285 286 286 286 286 285 284 283 281 279 279 278 276 273 269 261 251 242 240 244 250 257 263 269 273 278 281 284 285 285 285 285 284 283 283 283 284 286 288 291 294 296 299 301 302 302 302 302 301 300 298 297 297 296 296 297 297 298 298 298 300 301 302 302 303 303 304 305 306 307 310 312 313 314 315 316 317 317 316
291 289 288 287 287 287 287 286 286 284 283 282 281 279 277 276 275 272 268 262 252 243 238 238 243 251 259 265 271 276 279 282 284 285 285 286 286 285 285 284 284 284 286 288 290 293 296 298 300 302 302 303 304 303 302 301 299 298 297 297 296 296 297 297 297 299 300 300 301 302 302 302 303 304 306 308 311 312 312 313 314 316 318 318 317
293 291 290 290 289 289 288 287 285 283 281 279 277 274 272 270 267 260 251 242 235 234 239 245 253 261 267 272 277 280 282 283 284 284 284 284 284 283 283 284 285 286 288 290 293 296 298 300 302 304 305 306 306 305 305 304 302 301 300 299 298 297 297 297 298 299 299 300 301 301 301 302 304 305 307 309 309 309 311 313 315 318 319 318 316
294 292 291 291 290 289 288 287 285 283 281 277 274 271 266 260 251 241 233 231 234 241 250 258 265 271 276 279 281 283 283 283 284 283 282 282 282 281 282 284 286 288 291 293 295 298 300 302 304 306 306 307 307 307 306 305 304 303 302 301 300 299 299 298 298 299 299 300 300 301 301 303 304 305 306 307 308 309 312 315 317 319 319 317 316
292 291 291 291 290 289 288 287 285 284 281 275 269 262 250 238 230 227 230 238 247 256 265 271 275 279 282 283 284 284 284 283 283 283 281 281 282 283 285 287 288 290 292 295 297 299 301 303 305 306 307 306 306 306 305 305 305 304 303 302 301 300 300 300 301 301 302 301 300 300 301 302 303 304 305 307 309 312 315 317 318 318 318 316 315